Starlink 11532

decayed
NORAD ID: 62596 Int'l Des: 2025-008 Owner: SPXS Country: US Constellation: starlink
LEOCIRCULAR

关于 Starlink 11532

正在加载描述...

高度历史

Altitude vs Time

uPlot chart will show altitude changes over time

两行轨道根数

1 62596U 25008K 25214.25002315 .04136349 89309-5 19453-2 0 9993
2 62596 42.9852 1.0851 0010969 301.4257 221.7139 16.20457176 32630
Epoch: Aug 2, 2025 • Age: 3063 hours

当前状态

Position data unavailable
发射日期 Jan 13, 2025
运行时间 0.8 years
衰减日期 Aug 2, 2025
类型 internet

技术详情

分类 Payload
质量 960.00 kg
干质量 910.00 kg
总质量 960.00 kg
长度 0.30 m
直径 4.10 m
跨度 29.00 m
形状 Box + pan
制造商 SPXS
平台类型 Starlink V2MD
阶段状态 Unknown Transfer Status
所有者/国家 SPXS/US

大型星座

Loading constellations...